Regional Weather Roundup
Issued by NWS Sioux Falls, SD

Home | Current Version | Previous Version | Text Only | Print | Product List | Glossary On
Versions: 1 2 3 4 5 6 7 8 9 10 11 12 13 14 15 16 17 18 19 20 21 22 23 24 25 26 27 28 29 30 31 32 33 34 35 36 37 38 39 40 41 42 43 44 45 46 47 48 49 50
000
ASUS43 KFSD 281810
RWRFSD

WEATHER ROUNDUP FOR SE SOUTH DAKOTA/SW MINNESOTA/NW IOWA
NATIONAL WEATHER SERVICE SIOUX FALLS SD
1200 PM CST SUN DEC 28 2014

NOTE: "FAIR" INDICATES FEW OR NO CLOUDS BELOW 12,000 FEET WITH NO
SIGNIFICANT WEATHER AND OR OBSTRUCTIONS TO VISIBILITY.


SDZ038>040-050-052>070-281900-
SOUTHEAST SOUTH DAKOTA

CITY           SKY/WX    TMP DP  RH WIND       PRES   REMARKS
CHAMBERLAIN    PTSUNNY   16   9  74 NE3       30.10F
6HR MIN TEMP:  -1; 6HR MAX TEMP:  16;

HURON          SUNNY     16  10  77 NE6       30.16F WCI   7
6HR MIN TEMP:  -3; 6HR MAX TEMP:  16;

MADISON        FAIR      16  16 100 NE12      30.12F WCI   3
MITCHELL       SUNNY     17  12  80 CALM      30.16S
6HR MIN TEMP:   2; 6HR MAX TEMP:  18;

SIOUX FALLS    MOSUNNY   13   9  84 N3        30.13F
6HR MIN TEMP:  -5; 6HR MAX TEMP:  13;

WINNER         FAIR      18   7  62 NE5       30.07S WCI  11
YANKTON        MOSUNNY   12  12 100 N5        30.15F WCI   4
$$

MNZ071-072-080-081-089-090-097-098-281900-
SOUTHWEST MINNESOTA

CITY           SKY/WX    TMP DP  RH WIND       PRES   REMARKS
FAIRMONT       SUNNY     19  12  73 N8        30.14F WCI   9
JACKSON        SUNNY     21  16  79 VRB8      30.12F WCI  12
LUVERNE        SUNNY     19  16  86 CALM      30.14S
MARSHALL       CLOUDY    21  16  79 N10       30.17S WCI  10
6HR MIN TEMP:   9; 6HR MAX TEMP:  21;

MONTEVIDEO     PTSUNNY   23  18  80 NE8       30.19S WCI  14
PIPESTONE      LGT SNOW  19  18  93 E9        30.12R WCI   9
REDWOOD FALLS  MOSUNNY   23  17  78 NW5       30.17F WCI  17
TRACY          FOG       19  18  93 N7        30.16S VSB 3/4 WCI  10
WINDOM         SUNNY     18  16  93 N7        30.14S WCI   8
WORTHINGTON    SUNNY     19 -26  12 N12       30.13F WCI   7
$$

IAZ001>003-012>014-020>022-031-032-NEZ013-014-SDZ071-281900-
NORTHWEST IOWA

CITY           SKY/WX    TMP DP  RH WIND       PRES   REMARKS
CHEROKEE       SUNNY     17  16  97 CALM      30.14F
DENISON        SUNNY     25  19  80 CALM      30.11F
ESTHERVILLE    SUNNY     20  15  81 N7        30.13F WCI  11
LE MARS        MOSUNNY   14  12  92 CALM      30.15F
ORANGE CITY    SUNNY     18  14  86 NE3       30.12F
SHELDON        SUNNY     16  14  93 CALM      30.12S
SIOUX CITY     MOSUNNY   19  13  77 CALM      30.16F
6HR MIN TEMP:   2; 6HR MAX TEMP:  19;

SPENCER        SUNNY     21  13  71 N5        30.14F WCI  15
6HR MIN TEMP:   3; 6HR MAX TEMP:  21;

STORM LAKE     SUNNY     18  12  79 NW3       30.12S
$$

ABBREVIATIONS USED IN REMARKS
   TC - TEMPERATURE IN CELSIUS
  WCI - WIND CHILL INDEX
   HX - HEAT INDEX
  VSB - VISIBILITY



USA.gov is the U.S. government's official web portal to all federal, state and local government web resources and services.